sat.trackr.live / text

‹ back to catalog

NETSAT-2

NORAD 46507 · 2020-068X

PAYLOAD ACTIVE UNKNOWN

§ Identity

Operator
Country
GER
Launch date
2020-09-28
Launch site
PLMSC
Launch vehicle
Mass (kg)
RCS (m²)

Purposes: tech_demo

External: N2YO · Heavens-Above · Gunter

§ Orbital elements

Epoch: 2026-05-24T23:39:01.430208Z

Period
93.21 min
Inclination
97.8628°
Eccentricity
0.0006070
Mean motion
15.44871339 rev/d
Perigee alt
427.6 km
Apogee alt
435.9 km
Semi-major
6,809.9 km
B*
4.3384e-4
RAAN
151.1914°
Arg perigee
83.6028°
Mean anomaly
276.5910°
Rev number
31,215

§ Raw data

NETSAT-21 46507U 20068X   26144.98543322  .00020307  00000+0  43384-3 0  99972 46507  97.8628 151.1914 0006070  83.6028 276.5910 15.44871339312153

JSON: /api/v1/satellites/46507 · /tle

For live sub-satellite position, see the globe view (requires WebGL).

§ Visibility from observer

Set your observer location to see the next 7 days of passes ≥ 10°. The values pass through the URL so the page stays shareable.

No JS? Fill the form by hand. The geolocation button needs JavaScript.

§ Radio — SatNOGS DB

ModeDescriptionDownlinkUplink
FSK AX.25 G3RUH Telemetry 435.600 MHz

1 transmitter · refreshed weekly from db.satnogs.org